User: anonymous   Login
Location: Unspecified
(0.0000°N, 0.0000°E)
Time: 00:04:05
(UTC+00:00)
Language:

Orbcomm D8 (FM36) - Orbit

View from above orbital plane
View from above orbital plane
View from above satellite
View from above satellite

Ground track
Ground track

The orbit data is extracted from the following two-line orbital elements,

1 25984U 99065E   17265.45545153 -.00000106  00000-0  12811-4 0  9995
2 25984  45.0386  63.6810 0002333 240.4829 119.5785 14.32534544929618
Epoch (UTC): 22 September 2017 10:55:51
Eccentricity: 0.0002333
inclination: 45.0386°
perigee height: 781 km
apogee height: 785 km
right ascension of ascending node: 63.6810°
argument of perigee: 240.4829°
revolutions per day: 14.32534544
mean anomaly at epoch: 119.5785°
orbit number at epoch: 92961

The dashed part of the orbit path shows where the satellite is in the earth's shadow,  

DLR